Hourly Data Report for June 20, 2021

BORDEN AWOS
ONTARIO
Current Station Operator: DND

44°16'20.000" N
79°54'42.000" W
222.50 m
611B002
71534
YBN

Download Data

Hourly Data (June 2021)
Hourly Data Report for June 20, 2021
TIME
LST
Temp Definition
°C
Dew Point Definition
°C
Rel Hum Definition
%
Precip. Amount Definition
mm

Wind Dir Definition
10's deg

Wind Spd Definition
km/h
Visibility Definition
km
Stn Press Definition
kPa
Hmdx Definition


Wind Chill Definition


Weather Definition


00:00 10.3 7.2 81     0 14.5 98.20     LegendNANA
01:00 10.0 7.9 87     0 14.5 98.20     LegendNANA
02:00 9.6 7.7 88   33 4 14.5 98.23     LegendNANA
03:00 8.6 7.6 93     0 14.5 98.18     LegendNANA
04:00 7.1 5.6 90   15 4 14.5 98.18     LegendNANA
05:00 7.2 5.6 90   18 4 14.5 98.23     LegendNANA
06:00 12.1 9.2 82     0 14.5 98.24     LegendNANA
07:00 17.1 10.8 66   20 4 14.5 98.28     LegendNANA
08:00 19.9 10.0 53   2 7 14.5 98.27     LegendNANA
09:00 21.5 10.2 49   8 6 14.5 98.24     LegendNANA
10:00 24.0 11.1 44   9 9 14.5 98.21 26   LegendNANA
11:00 24.8 12.2 45   14 7 14.5 98.13 27   LegendNANA
12:00 26.0 12.7 44   4 9 14.5 98.07 29   LegendNANA
13:00 27.0 13.4 43   29 4 14.5 98.03 30   LegendNANA
14:00 27.6 13.2 41   34 9 14.5 97.96 31   LegendNANA
15:00 27.7 13.5 42   3 9 14.5 97.94 31   LegendNANA
16:00 26.6 13.5 44   32 15 14.5 97.91 30   LegendNANA
17:00 23.8 12.1 48   31 17 14.5 97.94 26   LegendNANA
18:00 23.4 11.8 48   33 15 14.5 97.92 26   LegendNANA
19:00 22.3 11.9 52   33 7 14.5 97.93 25   LegendNANA
20:00 20.4 11.5 57   29 6 14.5 97.91     LegendNANA
21:00 18.1 11.1 64     0 14.5 97.88     LegendNANA
22:00 17.2 11.2 68     0 14.5 97.84     LegendNANA
23:00 17.3 11.5 69   21 4 14.5 97.79     LegendNANA

Notes on Data Quality.

Legend

  • E = Estimated
  • M = Missing
  • NA = Not Available*
  • [empty] = Indicates an unobserved value
Date modified: